STARLINK-36116

Last updated on Fri Dec 19 2025 00:02:08 GMT+0000 (Coordinated Universal Time)

1 66948U 25286Z 25352.58336806 -.01434514 00000+0 -75475-2 0 9995 2 66948 53.1552 20.9769 0001128 69.0589 82.8594 15.82607879 2931
UTC large
Height (km)
Speed (km/s)
/
Latitude / Longitude
Inclination (degrees)
Orbital Period (minutes)
Azimuth
Elevation
Range (km)
Doppler Factor

Next 0 passes for location: London (51.5072 / 0.1276)

Sorry there are no passes over London.